Flag for U.S.A. Weather past 2 weeks in Amarillo, Texas, U.S.A.

Now
57 °F

Clear.


Feels Like: 52 °F
Forecast: 52 / 69 °F
Wind: 23 mph from Northwest

Location: Amarillo International Airport

Current Time: Oct 2, 2014 at 5:42:47 AM

Latest Report: Oct 2, 2014 at 4:53 AM


Visibility: 10 mi

Pressure: 29.73 "Hg

Humidity: 69%

Dew point: 47 °F

Location of AmarilloLocation

Historic Weather in Amarillo — Graph

°F

Amarillo temperature yesterday

Maximum temperature yesterday: 83 °F (at 4:01 PM)
Minimum temperature yesterday: 50 °F (at 7:53 AM)
Average temperature yesterday: 68 °F

Past Weeks' High & Low Weather Summary

 TemperatureHumidityPressure
High84 °F (Sep 30, 3:53 PM)100% (Sep 19, 5:53 AM)30.24 "Hg (Sep 19, 5:53 AM)
Low50 °F (Oct 1, 7:53 AM)22% (Sep 30, 5:53 PM)29.63 "Hg (Sep 30, 3:53 PM)
Average68 °F73%29.97 "Hg
* Reported Sep 17 4:53 AM — Oct 2 4:53 AM, Amarillo, Weather by CustomWeather, © 2014

Note: Actual official high and low records may vary slightly from our data, if they occured in-between our weather recording intervals... More about our weather records

Advertising

Amarillo weather history for previous 24 hours

 ConditionsComfort  
Time TempWeatherWind HumidityBarometerVisibility
4:53 AM
Oct 2
57 °FClear.23 mph69%29.73 "Hg10 mi
3:53 AM63 °FClear.15 mph45%29.67 "Hg10 mi
2:53 AM64 °FClear.12 mph43%29.67 "Hg10 mi
1:53 AM59 °FClear.8 mph58%29.66 "Hg10 mi
12:53 AM59 °FClear.9 mph62%29.67 "Hg10 mi
11:53 PM
Oct 1
61 °FClear.9 mph58%29.68 "Hg10 mi
10:53 PM63 °FClear.9 mph54%29.70 "Hg10 mi
9:53 PM66 °FClear.7 mph47%29.70 "Hg10 mi
8:53 PM69 °FClear.7 mph39%29.70 "Hg10 mi
7:53 PM70 °FSunny.8 mph38%29.70 "Hg10 mi
6:53 PM78 °FSunny.9 mph28%29.66 "Hg10 mi
5:53 PM82 °FSunny.10 mph23%29.64 "Hg10 mi
4:53 PM83 °FSunny.12 mph22%29.63 "Hg10 mi
4:01 PM83 °FSunny.12 mph22%29.79 "Hg10 mi
2:53 PM80 °FSunny.5 mph25%29.67 "Hg10 mi
1:53 PM79 °FSunny.6 mph28%29.70 "Hg10 mi
12:53 PM77 °FSunny.3 mph31%29.73 "Hg10 mi
11:53 AM74 °FSunny.9 mph33%29.75 "Hg10 mi
10:53 AM71 °FSunny.9 mph36%29.75 "Hg10 mi
9:53 AM66 °FSunny.9 mph43%29.75 "Hg10 mi
8:53 AM59 °FSunny.8 mph58%29.74 "Hg10 mi
7:53 AM50 °FClear.6 mph74%29.74 "Hg10 mi
6:53 AM55 °FClear.9 mph59%29.68 "Hg10 mi
5:53 AM60 °FClear.8 mph46%29.65 "Hg10 mi
Weather by CustomWeather, © 2014

See weather overviewHow to use our weather pages